Regional Weather Roundup
Issued by NWS

Home | Current Version | Previous Version | Graphics & Text | Print | Product List | Glossary On
Versions: 1 2 3 4 5 6 7 8 9 10 11 12 13 14 15 16 17 18 19 20 21 22 23 24 25 26 27 28 29 30 31 32 33 34 35 36 37 38 39 40 41 42 43 44 45 46 47 48 49 50
000
ASUS43 KLMK 272310
RWRKY
KENTUCKY REGIONAL WEATHER ROUNDUP
NATIONAL WEATHER SERVICE LOUISVILLE KY
700 PM EDT WED AUG 27 2014

NOTE "FAIR" INDICATES FEW OR NO CLOUDS BELOW 12,000 FEET
WITH NO SIGNIFICANT WEATHER AND/OR OBSTRUCTIONS TO VISIBILITY.

KYZ001>023-026-027-061>063-070>075-280000-
WESTERN AND SOUTH CENTRAL KENTUCKY

CITY           SKY/WX    TMP DP  RH WIND       PRES   REMARKS
PADUCAH        MOSUNNY   92  71  50 E6        30.00F HX  98
HENDERSON      MOSUNNY   88  72  58 CALM      30.00F HX  94
OWENSBORO      MOSUNNY   90  75  61 CALM      30.01F HX 100
HOPKINSVILLE   MOSUNNY   89  73  59 SW7       30.01F HX  96
BOWLING GREEN  MOSUNNY   87  73  62 CALM      30.03F HX  94
GLASGOW        SUNNY     87  69  54 E3        30.03F HX  91
$$

KYZ024-025-028>034-038-045-046-053-280000-
NORTH CENTRAL KENTUCKY

CITY           SKY/WX    TMP DP  RH WIND       PRES   REMARKS
LOUISVILLE/SDF LGT RAIN  75  70  84 SW7       30.05R
LOUISVILLE/LOU PTSUNNY   75  72  90 W8        30.05R
FORT KNOX      TSTM      72  68  88 N7        30.06F FOG
$$

KYZ035>037-039>044-047>052-055>060-089>105-280000-
NORTHEAST KENTUCKY

CITY           SKY/WX    TMP DP  RH WIND       PRES   REMARKS
LEXINGTON      TSTM      77  68  73 N14       30.10R
COVINGTON      MOSUNNY   88  69  53 NW10      30.02S HX  92
FRANKFORT      CLOUDY    72  68  87 SE8       30.04R
$$

KYZ054-064>069-076>088-106>120-280000-
SOUTHEAST KENTUCKY

CITY           SKY/WX    TMP DP  RH WIND       PRES   REMARKS
JACKSON        SUNNY     82  70  66 CALM      30.06F
LONDON         SUNNY     85  67  54 SE5       30.06F
SOMERSET       MOSUNNY   86  66  51 CALM      30.05F
MIDDLESBORO    SUNNY     84  65  52 N3        30.06F
MONTICELLO     CLEAR     88  72  58 CALM      30.06F HX  94
$$



USA.gov is the U.S. government's official web portal to all federal, state and local government web resources and services.